Simultaneous Nadir Overpasses (SNOs) Predictions

Prediction of SNOs between GOES-16 and NOAA-20 Satellite Orbit:

Table of predicted SNOs for the next 14.0 days since TLE Epoch: 10/3/2020
Index Date Time (GOES-16) GOES-16 Lat,Lon NOAA-20 Lat,Lon Distance(km) Time Diff (sec)
1 10/03/2020 18:16:06 0.00, -75.22 0.61, -72.64 294.78 80
2 10/05/2020 06:37:54 -0.01, -75.23 0.60, -77.91 305.04 80
3 10/06/2020 06:16:31 -0.00, -75.25 -0.44, -73.39 212.61 80
4 10/07/2020 18:38:28 0.01, -75.28 -0.75, -78.69 389.23 80
5 10/08/2020 18:22:24 0.00, -75.29 0.23, -74.16 128.67 80
6 10/10/2020 06:44:13 -0.01, -75.31 0.92, -79.44 470.53 80
7 10/11/2020 06:22:49 -0.01, -75.33 -0.12, -74.92 47.42 80
8 10/13/2020 18:26:02 0.01, -75.39 -0.08, -75.69 35.73 80
9 10/14/2020 18:09:59 0.01, -75.41 0.96, -71.17 482.90 80
10 10/16/2020 06:31:47 -0.01, -75.44 0.24, -76.44 114.97 80
